AEA213 LOWI-EDDF

Flight info

Callsign AEA213
Flight time N/A
Altitude 36000
Route KOGOL M726 ERNAS T161 DEBHI SPESA5C
Aircraft B738/M-SDE2E3FGHIRWXY/LB1

Departure

Time 2026-05-07 21:37
Airport Innsbruck Airport (LOWI)

Arrival

Time N/A
Airport Frankfurt Main Airport (EDDF)
Time Latitude Longitude Altitude Speed Heading
2026-05-07 21:15 47.25808 11.34931 1900 ft 0 kts 173°
2026-05-07 21:27 47.25814 11.34930 1890 ft 2 kts 179°
2026-05-07 21:27 47.25831 11.34934 1889 ft 2 kts 217°
2026-05-07 21:27 47.25838 11.34946 1896 ft 2 kts 252°
2026-05-07 21:28 47.25840 11.34961 1887 ft 0 kts 261°
2026-05-07 21:31 47.25839 11.34952 1895 ft 5 kts 261°
2026-05-07 21:31 47.25831 11.34881 1897 ft 8 kts 261°
2026-05-07 21:31 47.25825 11.34830 1900 ft 7 kts 261°
2026-05-07 21:31 47.25829 11.34758 1900 ft 7 kts 279°
2026-05-07 21:32 47.25834 11.34686 1900 ft 7 kts 270°
2026-05-07 21:32 47.25829 11.34615 1900 ft 7 kts 262°
2026-05-07 21:32 47.25822 11.34543 1900 ft 7 kts 262°
2026-05-07 21:32 47.25815 11.34472 1897 ft 7 kts 261°
2026-05-07 21:33 47.25808 11.34403 1893 ft 7 kts 261°
2026-05-07 21:33 47.25799 11.34328 1900 ft 8 kts 261°
2026-05-07 21:33 47.25790 11.34237 1894 ft 10 kts 261°
2026-05-07 21:33 47.25775 11.34100 1896 ft 17 kts 261°
2026-05-07 21:34 47.25788 11.33935 1903 ft 16 kts 294°
2026-05-07 21:34 47.25850 11.33798 1909 ft 16 kts 306°
2026-05-07 21:34 47.25913 11.33670 1915 ft 15 kts 305°
2026-05-07 21:34 47.25926 11.33526 1909 ft 15 kts 259°
2026-05-07 21:35 47.25909 11.33382 1909 ft 14 kts 261°
2026-05-07 21:35 47.25888 11.33247 1903 ft 13 kts 234°
2026-05-07 21:35 47.25852 11.33139 1904 ft 9 kts 289°
2026-05-07 21:35 47.25859 11.33126 1910 ft 2 kts 326°
2026-05-07 21:36 47.25881 11.33134 1913 ft 4 kts 40°
2026-05-07 21:36 47.25888 11.33168 1911 ft 4 kts 85°
2026-05-07 21:36 47.25891 11.33205 1913 ft 0 kts 84°
2026-05-07 21:36 47.25899 11.33289 1913 ft 38 kts 81°
2026-05-07 21:37 47.25988 11.34099 1908 ft 120 kts 81°
2026-05-07 21:37 47.26154 11.35634 1985 ft 178 kts 80°
2026-05-07 21:37 47.26367 11.37504 2731 ft 191 kts 80°
2026-05-07 21:37 47.26644 11.39441 3692 ft 193 kts 77°
2026-05-07 21:38 47.26913 11.41348 4659 ft 194 kts 79°
2026-05-07 21:38 47.27162 11.43396 5278 ft 209 kts 78°
2026-05-07 21:38 47.27454 11.45471 6191 ft 208 kts 78°
2026-05-07 21:38 47.27784 11.47629 6682 ft 226 kts 77°
2026-05-07 21:39 47.28264 11.49912 7311 ft 240 kts 66°
2026-05-07 21:39 47.29009 11.52200 7930 ft 257 kts 64°
2026-05-07 21:39 47.29816 11.54654 8550 ft 275 kts 65°
2026-05-07 21:39 47.30620 11.57290 9225 ft 288 kts 66°
2026-05-07 21:40 47.31683 11.60933 9486 ft 295 kts 67°
2026-05-07 21:40 47.32229 11.62816 9604 ft 298 kts 67°
2026-05-07 21:40 47.33037 11.65610 10348 ft 304 kts 66°
2026-05-07 21:40 47.33899 11.68598 10626 ft 332 kts 67°
2026-05-07 21:41 47.34835 11.71851 10849 ft 358 kts 67°
2026-05-07 21:41 47.35828 11.75307 11399 ft 371 kts 67°
2026-05-07 21:41 47.36841 11.78841 12184 ft 377 kts 67°
2026-05-07 21:41 47.37867 11.82428 13025 ft 382 kts 66°
2026-05-07 21:42 47.38902 11.86049 13802 ft 387 kts 66°
2026-05-07 21:42 47.39956 11.89742 14493 ft 393 kts 66°
2026-05-07 21:42 47.41187 11.93352 15211 ft 396 kts 52°
2026-05-07 21:42 47.43181 11.96037 15957 ft 396 kts 28°
2026-05-07 21:43 47.45742 11.97476 16723 ft 394 kts
2026-05-07 21:43 47.48466 11.97646 17420 ft 394 kts 351°
2026-05-07 21:43 47.51101 11.96555 18102 ft 394 kts 333°
2026-05-07 21:43 47.53384 11.94354 18729 ft 393 kts 315°
2026-05-07 21:44 47.55221 11.91348 19393 ft 394 kts 308°
2026-05-07 21:44 47.56973 11.88214 19998 ft 398 kts 307°
2026-05-07 21:44 47.58728 11.85017 20574 ft 401 kts 307°
2026-05-07 21:44 47.60496 11.81802 21306 ft 399 kts 308°
2026-05-07 21:45 47.62173 11.78780 22887 ft 368 kts 308°
2026-05-07 21:45 47.63776 11.75910 24105 ft 359 kts 308°
2026-05-07 21:45 47.65392 11.73020 24397 ft 372 kts 308°
2026-05-07 21:45 47.67077 11.70008 24496 ft 387 kts 308°
2026-05-07 21:46 47.68831 11.66873 24596 ft 401 kts 308°
2026-05-07 21:46 47.70644 11.63634 24689 ft 415 kts 308°
2026-05-07 21:46 47.72512 11.60297 24894 ft 424 kts 308°
2026-05-07 21:46 47.74403 11.56918 25302 ft 427 kts 308°
2026-05-07 21:47 47.76275 11.53566 25813 ft 426 kts 308°
2026-05-07 21:47 47.78169 11.50172 26285 ft 426 kts 308°
2026-05-07 21:47 47.80056 11.46787 26542 ft 425 kts 308°
2026-05-07 21:47 47.81949 11.43381 26566 ft 429 kts 308°
2026-05-07 21:48 47.83986 11.40130 26587 ft 434 kts 318°
2026-05-07 21:48 47.86567 11.37747 26684 ft 440 kts 333°
2026-05-07 21:48 47.89489 11.36347 26823 ft 445 kts 347°
2026-05-07 21:48 47.92582 11.35960 26968 ft 448 kts 354°
2026-05-07 21:49 47.95678 11.35802 27294 ft 436 kts 355°
2026-05-07 21:49 47.98625 11.35659 27802 ft 416 kts 354°
2026-05-07 21:49 48.01450 11.35465 27778 ft 409 kts 353°
2026-05-07 21:49 48.04267 11.35232 27780 ft 403 kts 353°
2026-05-07 21:50 48.07048 11.34976 27782 ft 397 kts 352°
2026-05-07 21:50 48.09777 11.34538 27783 ft 392 kts 349°
2026-05-07 21:50 48.12439 11.33999 27784 ft 388 kts 348°
2026-05-07 21:50 48.15099 11.33441 27783 ft 385 kts 349°
2026-05-07 21:51 48.17765 11.33656 27780 ft 388 kts 12°
2026-05-07 21:51 48.20212 11.35339 27778 ft 390 kts 32°
2026-05-07 21:51 48.22207 11.38094 27781 ft 392 kts 50°
2026-05-07 21:51 48.23573 11.41565 27661 ft 396 kts 67°
2026-05-07 21:52 48.24179 11.45608 27378 ft 402 kts 87°
2026-05-07 21:52 48.23897 11.49741 26926 ft 394 kts 107°
2026-05-07 21:52 48.22763 11.53344 26249 ft 374 kts 128°
2026-05-07 21:52 48.21014 11.56069 25615 ft 355 kts 145°
2026-05-07 21:53 48.18970 11.57987 24988 ft 342 kts 159°
2026-05-07 21:53 48.16735 11.59085 24440 ft 336 kts 169°
2026-05-07 21:53 48.14475 11.59859 23952 ft 332 kts 171°
2026-05-07 21:53 48.12212 11.60560 23419 ft 330 kts 172°
2026-05-07 21:54 48.09993 11.61235 22843 ft 329 kts 171°
2026-05-07 21:54 48.07759 11.61922 22282 ft 328 kts 171°
2026-05-07 21:54 48.05526 11.62618 21989 ft 331 kts 171°
2026-05-07 21:54 48.03240 11.63338 21725 ft 337 kts 171°
2026-05-07 21:55 48.00935 11.64071 21459 ft 341 kts 171°
2026-05-07 21:55 47.98604 11.64816 21213 ft 345 kts 171°
2026-05-07 21:55 47.96220 11.65581 20970 ft 355 kts 171°
2026-05-07 21:55 47.93760 11.66369 20372 ft 372 kts 170°
2026-05-07 21:56 47.91167 11.67200 19665 ft 389 kts 170°
2026-05-07 21:56 47.88520 11.68050 18970 ft 401 kts 170°
2026-05-07 21:56 47.85758 11.68939 18271 ft 409 kts 170°
2026-05-07 21:56 47.82977 11.69835 17479 ft 408 kts 170°
2026-05-07 21:57 47.80225 11.70723 16717 ft 400 kts 170°
2026-05-07 21:57 47.77522 11.71595 15969 ft 395 kts 170°
2026-05-07 21:57 47.74848 11.72453 15239 ft 391 kts 170°
2026-05-07 21:57 47.72199 11.73301 14540 ft 389 kts 171°
2026-05-07 21:58 47.69561 11.74143 13841 ft 387 kts 171°
2026-05-07 21:58 47.66978 11.74967 13077 ft 380 kts 171°
2026-05-07 21:58 47.64434 11.75779 12707 ft 372 kts 171°
2026-05-07 21:58 47.61257 11.76789 12370 ft 375 kts 170°
2026-05-07 21:59 47.59335 11.77399 12185 ft 376 kts 170°
2026-05-07 21:59 47.56842 11.78239 11845 ft 358 kts 167°
2026-05-07 21:59 47.54504 11.79327 11286 ft 349 kts 162°
2026-05-07 21:59 47.52278 11.80751 10567 ft 348 kts 153°
2026-05-07 22:00 47.50130 11.82395 9620 ft 353 kts 165°
2026-05-07 22:00 47.47675 11.83209 8387 ft 358 kts 170°
2026-05-07 22:00 47.45373 11.83893 8033 ft 321 kts 167°
2026-05-07 22:00 47.43297 11.84559 7530 ft 298 kts 162°
2026-05-07 22:01 47.41364 11.85358 7045 ft 280 kts 164°
2026-05-07 22:01 47.39453 11.85938 6027 ft 283 kts 172°
2026-05-07 22:01 47.37599 11.85915 5886 ft 252 kts 197°
2026-05-07 22:01 47.36019 11.85193 5726 ft 227 kts 205°
2026-05-07 22:02 47.34611 11.84267 5268 ft 213 kts 213°
2026-05-07 22:02 47.33303 11.83344 5098 ft 207 kts 199°
2026-05-07 22:02 47.32078 11.82426 5454 ft 190 kts 209°
2026-05-07 22:02 47.31185 11.81167 5860 ft 175 kts 216°
2026-05-07 22:03 47.30268 11.79252 6025 ft 167 kts 246°